Location: Girdwood
(60.9430°N, 149.1660°W)
Time: 16:20:27
(UTC-08:00)

Amateur Radio Satellites - All Passes

Search period start: 01 October 2014 15:50
Search period end: 02 October 2014 15:50
Location: Girdwood, 60.9430°N, 149.1660°W

Satellite Date Start Highest point End Downlink Frequencies (MHz)
Time Altitude Azimuth
JAS-1B 01 Oct 15:57:39 16:03:59 36° 265° (W) 16:09:33 435.800 - 435.900 CW/SSB
Gurwin Techsat 1B 01 Oct 16:01:07 16:06:20 55° 259° (W) 16:11:36 435.225 FM
JAS-2 01 Oct 16:02:51 16:06:50 21° 36° (NE) 16:11:05 435.800 - 435.900 CW/SSB, 435.910 FM
MaSat-1 01 Oct 16:09:44 16:12:39 22° 247° (WSW) 16:15:16 437.345 MHz
Oscar 19 01 Oct 16:24:11 16:27:05 15° 279° (W) 16:30:00 437.125 CW, 437.150 USB
TMSAT-1 01 Oct 16:29:38 16:34:43 45° 262° (W) 16:39:50 436.925 FM
Saudisat 1A 01 Oct 16:31:21 16:35:35 47° 137° (SE) 16:39:51 436.775 MHz
ITAMSAT 1 01 Oct 16:35:48 16:39:45 22° 273° (W) 16:43:44 435.822 SSB
Uribyol 2 01 Oct 16:36:41 16:40:31 21° 274° (W) 16:44:24 436.500 FM
Uosat F 01 Oct 16:49:18 16:54:19 81° 68° (ENE) 16:59:23 435.120 FM
Sapphire 01 Oct 17:02:08 17:07:32 58° 23° (NNE) 17:12:55 437.095 MHz 1200 baud AX-25 AFSK
AO-Echo 01 Oct 17:12:15 17:12:50 10° 284° (WNW) 17:13:25 ?
Hamsat 01 Oct 17:14:15 17:17:52 27° 55° (NE) 17:21:28 145.90 MHz
AO-27 01 Oct 17:17:07 17:19:09 12° 282° (WNW) 17:21:11 436.795 MHz FM
PCSat 01 Oct 17:27:48 17:33:15 70° 30° (NNE) 17:38:42 145.825 MHz
HO-68 01 Oct 17:34:06 17:38:49 19° 12° (NNE) 17:43:32 435.675 MHz FM
AO-7 01 Oct 17:37:11 17:45:17 54° 257° (WSW) 17:53:25 29.400 - 29.500 MHz
Gurwin Techsat 1B 01 Oct 17:44:50 17:47:34 14° 281° (W) 17:50:18 435.225 FM
JAS-2 01 Oct 17:45:42 17:50:55 58° 62° (ENE) 17:56:39 435.800 - 435.900 CW/SSB, 435.910 FM
KITSAT 1 01 Oct 17:51:24 17:57:57 28° 110° (ESE) 18:04:31 435.175 FM
Saudisat 1A 01 Oct 18:10:42 18:15:07 70° 339° (NNW) 18:19:34 436.775 MHz
TMSAT-1 01 Oct 18:14:27 18:16:05 11° 284° (WNW) 18:17:43 436.925 FM
OPAL 01 Oct 18:28:18 18:32:51 30° 96° (E) 18:37:18 ?
Uosat F 01 Oct 18:29:36 18:33:43 25° 270° (W) 18:37:52 435.120 FM
Sapphire 01 Oct 18:45:46 18:51:09 63° 227° (SW) 18:56:31 437.095 MHz 1200 baud AX-25 AFSK
Hamsat 01 Oct 18:49:14 18:53:33 70° 256° (WSW) 18:57:51 145.90 MHz
SO-67 01 Oct 18:56:54 18:59:59 30° 62° (ENE) 19:03:05 435.3500 MHz FM
PCSat 01 Oct 19:11:24 19:16:35 46° 233° (SW) 19:21:45 145.825 MHz
HO-68 01 Oct 19:18:34 19:24:41 32° 38° (NE) 19:30:50 435.675 MHz FM
STRAND 1 01 Oct 19:31:18 19:34:41 17° 83° (E) 19:38:03 ?
JAS-2 01 Oct 19:31:30 19:36:25 38° 266° (W) 19:41:47 435.800 - 435.900 CW/SSB, 435.910 FM
AO-7 01 Oct 19:34:54 19:40:12 18° 283° (WNW) 19:45:32 29.400 - 29.500 MHz
KITSAT 1 01 Oct 19:44:13 19:52:15 71° 135° (SE) 20:00:18 435.175 FM
Saudisat 1A 01 Oct 19:50:48 19:55:09 53° 3° (N) 19:59:31 436.775 MHz
SO-50 01 Oct 20:00:10 20:02:18 13° 114° (ESE) 20:04:29 436.795 FM
UKube-1 01 Oct 20:05:53 20:08:33 16° 42° (NE) 20:11:13 145.840 MHz, 145.915 MHz
OPAL 01 Oct 20:07:02 20:12:12 71° 297° (WNW) 20:17:15 ?
Hamsat 01 Oct 20:27:54 20:30:19 15° 277° (W) 20:32:44 145.90 MHz
SO-67 01 Oct 20:29:42 20:32:58 39° 262° (W) 20:36:15 435.3500 MHz FM
Sapphire 01 Oct 20:29:55 20:33:43 20° 249° (WSW) 20:37:31 437.095 MHz 1200 baud AX-25 AFSK
ZACube-1 01 Oct 20:47:17 20:50:01 16° 42° (NE) 20:52:47 437.345 MHz
PCSat 01 Oct 20:56:23 20:58:48 13° 255° (WSW) 21:01:13 145.825 MHz
HO-68 01 Oct 21:04:29 21:11:37 75° 62° (ENE) 21:18:48 435.675 MHz FM
STRAND 1 01 Oct 21:09:41 21:14:51 69° 105° (ESE) 21:20:00 ?
Oscar 11 01 Oct 21:10:03 21:13:50 29° 55° (NE) 21:17:37 145.825 FM, Beacon 2401.500 USB
Saudisat 1A 01 Oct 21:30:39 21:35:07 81° 26° (NNE) 21:39:33 436.775 MHz
FUNcube-1 01 Oct 21:36:30 21:40:23 27° 53° (NE) 21:44:18 145.950 - 145.970 MHz USB
SO-50 01 Oct 21:37:29 21:41:52 46° 135° (SE) 21:46:22 436.795 FM
UKube-1 01 Oct 21:39:44 21:43:59 55° 64° (ENE) 21:48:16 145.840 MHz, 145.915 MHz
KITSAT 1 01 Oct 21:39:49 21:47:55 69° 342° (NNW) 21:56:01 435.175 FM
OPAL 01 Oct 21:46:23 21:50:26 24° 320° (NW) 21:54:25 ?
UOSAT-12 01 Oct 22:02:17 22:05:22 18° 118° (ESE) 22:08:27 437.025 FM, 437.400 FM
AO-40 01 Oct 22:08:26 02:27:37 21° 184° (S) 08:06:09 Beacon 2401.320
ZACube-1 01 Oct 22:21:06 22:25:33 50° 63° (ENE) 22:30:03 437.345 MHz
Oscar 11 01 Oct 22:45:27 22:49:48 64° 256° (WSW) 22:54:10 145.825 FM, Beacon 2401.500 USB
STRAND 1 01 Oct 22:49:13 22:53:49 34° 307° (NW) 22:58:25 ?
HO-68 01 Oct 22:53:21 22:59:57 39° 265° (W) 23:06:36 435.675 MHz FM
Saudisat 1A 01 Oct 23:10:24 23:14:29 36° 228° (SW) 23:18:32 436.775 MHz
FUNcube-1 01 Oct 23:11:49 23:16:25 77° 255° (WSW) 23:21:06 145.950 - 145.970 MHz USB
UKube-1 01 Oct 23:16:35 23:20:27 31° 265° (W) 23:24:22 145.840 MHz, 145.915 MHz
SO-50 01 Oct 23:17:43 23:22:21 73° 338° (NNW) 23:27:07 436.795 FM
OPAL 01 Oct 23:25:56 23:27:48 12° 343° (NNW) 23:29:39 ?
KITSAT 1 01 Oct 23:36:14 23:44:17 63° 10° (N) 23:52:20 435.175 FM
UOSAT-12 01 Oct 23:40:06 23:44:43 57° 139° (SE) 23:49:23 437.025 FM, 437.400 FM
ZACube-1 01 Oct 23:57:51 00:02:08 37° 265° (W) 00:06:28 437.345 MHz
Oscar 11 02 Oct 00:24:37 00:26:52 14° 278° (W) 00:29:08 145.825 FM, Beacon 2401.500 USB
STRAND 1 02 Oct 00:29:19 00:31:45 14° 330° (NNW) 00:34:11 ?
ISS 02 Oct 00:36:00 00:37:12 12° 158° (SSE) 00:38:24 145.800 FM
HO-68 02 Oct 00:48:14 00:50:00 11° 290° (WNW) 00:51:45 435.675 MHz FM
FUNcube-1 02 Oct 00:50:31 00:53:36 18° 276° (W) 00:56:43 145.950 - 145.970 MHz USB
SO-50 02 Oct 00:58:46 01:03:23 55° 2° (N) 01:08:07 436.795 FM
OPAL 02 Oct 01:03:59 01:04:45 10° 7° (N) 01:05:30 ?
UOSAT-12 02 Oct 01:20:12 01:24:56 67° 342° (NNW) 01:29:41 437.025 FM, 437.400 FM
KITSAT 1 02 Oct 01:32:08 01:40:17 87° 217° (SW) 01:48:24 435.175 FM
Oscar 16 02 Oct 01:46:30 01:48:07 11° 76° (ENE) 01:49:43 437.025 USB, Beacon 2401.1428
Oscar 10/S400 02 Oct 02:09:08 02:52:41 20° 223° (SW) 05:07:30 145.825 - 145.975 CW/USB, Beacon 145.810 USB
ISS 02 Oct 02:10:44 02:12:59 17° 178° (S) 02:15:14 145.800 FM
OPAL 02 Oct 02:38:37 02:41:52 17° 31° (NNE) 02:45:07 ?
SO-50 02 Oct 02:39:36 02:44:22 81° 26° (NNE) 02:49:13 436.795 FM
Oscar 19 02 Oct 02:42:47 02:47:05 26° 89° (E) 02:51:20 437.125 CW, 437.150 USB
ITAMSAT 1 02 Oct 02:57:22 03:00:55 18° 84° (E) 03:04:26 435.822 SSB
Uribyol 2 02 Oct 02:57:53 03:01:34 19° 85° (E) 03:05:14 436.500 FM
RS-15 02 Oct 02:59:53 03:09:04 33° 109° (ESE) 03:18:15 29.354 - 29.394 USB, Beacon 29.352 USB
UOSAT-12 02 Oct 03:00:53 03:05:35 56° 6° (N) 03:10:17 437.025 FM, 437.400 FM
Oscar 16 02 Oct 03:23:51 03:28:51 46° 99° (E) 03:33:48 437.025 USB, Beacon 2401.1428
AO-Echo 02 Oct 03:24:23 03:28:44 30° 92° (E) 03:33:11 ?
KITSAT 1 02 Oct 03:27:45 03:35:03 39° 242° (WSW) 03:42:20 435.175 FM
JAS-1B 02 Oct 03:29:18 03:34:31 35° 94° (E) 03:39:50 435.800 - 435.900 CW/SSB
AO-27 02 Oct 03:35:39 03:40:17 31° 93° (E) 03:44:54 436.795 MHz FM
ISS 02 Oct 03:47:06 03:48:48 13° 198° (SSW) 03:50:30 145.800 FM
Gurwin Techsat 1B 02 Oct 04:06:45 04:11:28 31° 92° (E) 04:16:09 435.225 FM
OPAL 02 Oct 04:14:49 04:19:42 42° 53° (NE) 04:24:35 ?
SO-50 02 Oct 04:20:19 04:24:45 40° 228° (SW) 04:29:16 436.795 FM
Oscar 19 02 Oct 04:21:51 04:27:03 81° 291° (WNW) 04:32:12 437.125 CW, 437.150 USB
TMSAT-1 02 Oct 04:34:35 04:39:31 37° 95° (E) 04:44:26 436.925 FM
ITAMSAT 1 02 Oct 04:36:07 04:41:23 71° 106° (ESE) 04:46:37 435.822 SSB
Uribyol 2 02 Oct 04:36:42 04:41:59 74° 106° (ESE) 04:47:13 436.500 FM
UOSAT-12 02 Oct 04:41:18 04:46:06 90° 210° (SSW) 04:50:51 437.025 FM, 437.400 FM
Uosat F 02 Oct 04:48:07 04:50:19 13° 79° (E) 04:52:30 435.120 FM
AO-Echo 02 Oct 05:03:01 05:07:57 69° 293° (WNW) 05:13:00 ?
Oscar 16 02 Oct 05:03:21 05:08:18 47° 301° (WNW) 05:13:13 437.025 USB, Beacon 2401.1428
RS-15 02 Oct 05:08:56 05:19:48 74° 137° (SE) 05:30:46 29.354 - 29.394 USB, Beacon 29.352 USB
AO-27 02 Oct 05:15:02 05:20:16 70° 294° (WNW) 05:25:28 436.795 MHz FM
STRAND 1 02 Oct 05:19:50 05:23:34 21° 42° (NE) 05:27:19 ?
JAS-1B 02 Oct 05:20:04 05:25:43 62° 298° (WNW) 05:31:27 435.800 - 435.900 CW/SSB
KITSAT 1 02 Oct 05:25:34 05:28:12 12° 266° (W) 05:30:51 435.175 FM
AO-7 02 Oct 05:26:33 05:33:51 33° 91° (E) 05:41:06 29.400 - 29.500 MHz
Gurwin Techsat 1B 02 Oct 05:46:36 05:51:56 71° 294° (WNW) 05:57:13 435.225 FM
OPAL 02 Oct 05:53:24 05:58:33 56° 255° (WSW) 06:03:41 ?
Oscar 19 02 Oct 06:01:41 06:05:51 25° 313° (NW) 06:09:58 437.125 CW, 437.150 USB
SO-50 02 Oct 06:02:52 06:04:13 11° 249° (WSW) 06:05:35 436.795 FM
MaSat-1 02 Oct 06:03:10 06:05:52 15° 108° (ESE) 06:08:28 437.345 MHz
TMSAT-1 02 Oct 06:14:31 06:19:46 59° 297° (WNW) 06:24:59 436.925 FM
ITAMSAT 1 02 Oct 06:15:58 06:20:38 34° 307° (NW) 06:25:17 435.822 SSB
Uribyol 2 02 Oct 06:16:32 06:21:10 33° 308° (NW) 06:25:47 436.500 FM
UOSAT-12 02 Oct 06:21:41 06:25:55 33° 232° (SW) 06:30:06 437.025 FM, 437.400 FM
Uosat F 02 Oct 06:25:22 06:30:19 52° 101° (ESE) 06:35:15 435.120 FM
Hamsat 02 Oct 06:26:08 06:27:58 13° 81° (E) 06:29:48 145.90 MHz
JAS-2 02 Oct 06:27:24 06:32:36 25° 86° (E) 06:38:16 435.800 - 435.900 CW/SSB, 435.910 FM
AO-Echo 02 Oct 06:42:26 06:46:05 21° 315° (NW) 06:49:48 ?
Oscar 16 02 Oct 06:43:25 06:46:40 17° 323° (NW) 06:49:53 437.025 USB, Beacon 2401.1428
AO-27 02 Oct 06:55:06 06:59:06 23° 316° (NW) 07:03:06 436.795 MHz FM
STRAND 1 02 Oct 06:56:57 07:02:00 63° 64° (ENE) 07:07:06 ?
JAS-1B 02 Oct 07:11:19 07:15:33 22° 323° (NW) 07:19:44 435.800 - 435.900 CW/SSB
AO-7 02 Oct 07:19:25 07:27:47 87° 115° (ESE) 07:36:07 29.400 - 29.500 MHz
RS-15 02 Oct 07:21:28 07:32:27 76° 348° (NNW) 07:43:38 29.354 - 29.394 USB, Beacon 29.352 USB
Gurwin Techsat 1B 02 Oct 07:27:06 07:31:13 23° 316° (NW) 07:35:19 435.225 FM
OPAL 02 Oct 07:35:48 07:38:34 14° 276° (W) 07:41:21 ?
MaSat-1 02 Oct 07:37:03 07:41:40 58° 128° (SE) 07:45:52 437.345 MHz
Oscar 19 02 Oct 07:42:23 07:43:40 11° 337° (NNW) 07:44:56 437.125 CW, 437.150 USB
TMSAT-1 02 Oct 07:55:03 07:58:51 20° 319° (NW) 08:02:40 436.925 FM
ITAMSAT 1 02 Oct 07:56:20 07:58:51 14° 330° (NNW) 08:01:22 435.822 SSB
Uribyol 2 02 Oct 07:56:54 07:59:20 13° 331° (NNW) 08:01:45 436.500 FM
Hamsat 02 Oct 08:00:39 08:04:52 61° 102° (ESE) 08:09:01 145.90 MHz
Uosat F 02 Oct 08:04:22 08:09:06 42° 303° (WNW) 08:13:49 435.120 FM
JAS-2 02 Oct 08:12:13 08:18:34 79° 107° (ESE) 08:25:45 435.800 - 435.900 CW/SSB, 435.910 FM
AO-27 02 Oct 08:36:05 08:37:00 10° 340° (NNW) 08:37:56 436.795 MHz FM
STRAND 1 02 Oct 08:36:58 08:41:34 33° 266° (W) 08:46:14 ?
JAS-1B 02 Oct 09:02:16 09:04:15 12° 351° (N) 09:06:12 435.800 - 435.900 CW/SSB
Gurwin Techsat 1B 02 Oct 09:08:25 09:09:33 11° 340° (NNW) 09:10:41 435.225 FM
AO-7 02 Oct 09:12:28 09:20:05 43° 320° (NW) 09:27:42 29.400 - 29.500 MHz
MaSat-1 02 Oct 09:13:51 09:18:16 46° 328° (NNW) 09:22:15 437.345 MHz
SO-67 02 Oct 09:15:51 09:19:18 60° 102° (ESE) 09:22:44 435.3500 MHz FM
RS-15 02 Oct 09:34:44 09:45:46 80° 20° (NNE) 09:57:06 29.354 - 29.394 USB, Beacon 29.352 USB
Hamsat 02 Oct 09:36:57 09:40:37 29° 304° (WNW) 09:44:14 145.90 MHz
Sapphire 02 Oct 09:40:42 09:43:02 13° 104° (ESE) 09:45:22 437.095 MHz 1200 baud AX-25 AFSK
Uosat F 02 Oct 09:43:58 09:46:50 15° 325° (NW) 09:49:41 435.120 FM
JAS-2 02 Oct 09:57:43 10:03:22 38° 308° (NW) 10:09:39 435.800 - 435.900 CW/SSB, 435.910 FM
PCSat 02 Oct 10:04:18 10:08:02 19° 110° (ESE) 10:11:47 145.825 MHz
HO-68 02 Oct 10:08:39 10:14:55 31° 90° (E) 10:21:09 435.675 MHz FM
Oscar 11 02 Oct 10:23:57 10:26:13 14° 82° (E) 10:28:28 145.825 FM, Beacon 2401.500 USB
SO-67 02 Oct 10:49:20 10:52:04 22° 303° (WNW) 10:54:48 435.3500 MHz FM
JAS-1B 02 Oct 10:49:47 10:52:36 14° 19° (NNE) 10:55:20 435.800 - 435.900 CW/SSB
MaSat-1 02 Oct 10:51:49 10:55:30 26° 350° (N) 10:58:50 437.345 MHz
FUNcube-1 02 Oct 10:52:05 10:54:21 13° 80° (E) 10:56:35 145.950 - 145.970 MHz USB
UKube-1 02 Oct 10:54:06 10:57:44 25° 92° (E) 11:01:21 145.840 MHz, 145.915 MHz
Oscar 19 02 Oct 10:56:27 10:58:10 12° 26° (NNE) 10:59:53 437.125 CW, 437.150 USB
AO-7 02 Oct 11:04:43 11:11:09 26° 346° (NNW) 11:17:36 29.400 - 29.500 MHz
ITAMSAT 1 02 Oct 11:13:05 11:13:43 10° 19° (NNE) 11:14:21 435.822 SSB
Uribyol 2 02 Oct 11:13:13 11:14:09 11° 20° (NNE) 11:15:06 436.500 FM
Sapphire 02 Oct 11:20:06 11:25:14 45° 126° (SE) 11:30:25 437.095 MHz 1200 baud AX-25 AFSK
Oscar 16 02 Oct 11:35:44 11:38:51 16° 36° (NE) 11:41:58 437.025 USB, Beacon 2401.1428
AO-Echo 02 Oct 11:35:55 11:36:40 10° 27° (NNE) 11:37:26 ?
ZACube-1 02 Oct 11:36:39 11:40:35 27° 91° (E) 11:44:27 437.345 MHz
JAS-2 02 Oct 11:43:21 11:47:04 17° 331° (NNW) 11:51:01 435.800 - 435.900 CW/SSB, 435.910 FM
PCSat 02 Oct 11:45:14 11:50:35 63° 133° (SE) 11:55:58 145.825 MHz
RS-15 02 Oct 11:47:18 11:58:04 64° 229° (SW) 12:09:12 29.354 - 29.394 USB, Beacon 29.352 USB
AO-27 02 Oct 11:49:30 11:51:54 13° 29° (NNE) 11:54:19 436.795 MHz FM
HO-68 02 Oct 11:56:18 12:03:33 90° 113° (ESE) 12:10:47 435.675 MHz FM
Oscar 11 02 Oct 11:58:57 12:03:18 65° 104° (ESE) 12:07:36 145.825 FM, Beacon 2401.500 USB
Gurwin Techsat 1B 02 Oct 12:22:48 12:25:17 14° 29° (NNE) 12:27:46 435.225 FM
FUNcube-1 02 Oct 12:27:10 12:31:45 60° 102° (ESE) 12:36:13 145.950 - 145.970 MHz USB
MaSat-1 02 Oct 12:29:23 12:32:58 27° 14° (NNE) 12:36:09 437.345 MHz
UKube-1 02 Oct 12:30:00 12:34:22 70° 293° (WNW) 12:38:44 145.840 MHz, 145.915 MHz
Oscar 19 02 Oct 12:31:45 12:36:04 27° 49° (NE) 12:40:23 437.125 CW, 437.150 USB
JAS-1B 02 Oct 12:36:12 12:41:38 29° 45° (NE) 12:46:34 435.800 - 435.900 CW/SSB
ITAMSAT 1 02 Oct 12:47:40 12:51:35 22° 43° (NE) 12:55:30 435.822 SSB
Uribyol 2 02 Oct 12:48:02 12:52:01 23° 44° (NE) 12:56:01 436.500 FM
TMSAT-1 02 Oct 12:49:52 12:52:43 15° 32° (NNE) 12:55:34 436.925 FM
AO-7 02 Oct 12:55:19 13:01:44 26° 13° (NNE) 13:08:09 29.400 - 29.500 MHz
Sapphire 02 Oct 13:03:08 13:08:34 71° 330° (NNW) 13:14:02 437.095 MHz 1200 baud AX-25 AFSK
AO-Echo 02 Oct 13:10:08 13:14:03 26° 50° (NE) 13:18:02 ?
Oscar 16 02 Oct 13:12:15 13:17:09 44° 58° (ENE) 13:22:05 437.025 USB, Beacon 2401.1428
ZACube-1 02 Oct 13:12:49 13:17:26 68° 292° (WNW) 13:21:56 437.345 MHz
AO-27 02 Oct 13:25:32 13:30:07 33° 52° (NE) 13:34:44 436.795 MHz FM
JAS-2 02 Oct 13:28:18 13:29:58 11° 357° (N) 13:31:41 435.800 - 435.900 CW/SSB, 435.910 FM
PCSat 02 Oct 13:28:48 13:34:10 59° 336° (NNW) 13:39:35 145.825 MHz
Oscar 11 02 Oct 13:35:30 13:39:15 29° 305° (NW) 13:42:58 145.825 FM, Beacon 2401.500 USB
HO-68 02 Oct 13:44:18 13:50:44 37° 317° (NW) 13:57:10 435.675 MHz FM
Gurwin Techsat 1B 02 Oct 13:59:14 14:03:55 33° 52° (NE) 14:08:37 435.225 FM
RS-15 02 Oct 13:59:56 14:08:21 26° 257° (WSW) 14:17:00 29.354 - 29.394 USB, Beacon 29.352 USB
FUNcube-1 02 Oct 14:03:50 14:07:58 33° 304° (WNW) 14:12:01 145.950 - 145.970 MHz USB
MaSat-1 02 Oct 14:06:07 14:10:03 63° 39° (NE) 14:13:24 437.345 MHz
UKube-1 02 Oct 14:06:53 14:09:58 19° 314° (NW) 14:13:02 145.840 MHz, 145.915 MHz
Oscar 19 02 Oct 14:09:44 14:14:57 90° 272° (W) 14:20:11 437.125 CW, 437.150 USB
JAS-1B 02 Oct 14:24:58 14:31:50 84° 68° (ENE) 14:37:48 435.800 - 435.900 CW/SSB
ITAMSAT 1 02 Oct 14:25:12 14:30:21 67° 65° (ENE) 14:35:33 435.822 SSB
Uribyol 2 02 Oct 14:25:38 14:30:48 70° 66° (ENE) 14:36:02 436.500 FM
TMSAT-1 02 Oct 14:26:35 14:31:25 38° 55° (NE) 14:36:17 436.925 FM
Uosat F 02 Oct 14:34:18 14:37:27 17° 37° (NE) 14:40:36 435.120 FM
AO-7 02 Oct 14:45:12 14:52:47 42° 40° (NE) 15:00:23 29.400 - 29.500 MHz
Sapphire 02 Oct 14:47:27 14:52:41 45° 354° (N) 14:57:56 437.095 MHz 1200 baud AX-25 AFSK
AO-Echo 02 Oct 14:47:41 14:52:25 84° 252° (WSW) 14:57:17 ?
ZACube-1 02 Oct 14:49:54 14:53:09 19° 314° (NW) 14:56:22 437.345 MHz
Oscar 16 02 Oct 14:51:29 14:56:32 50° 260° (W) 15:01:37 437.025 USB, Beacon 2401.1428
AO-27 02 Oct 15:04:09 15:09:21 73° 254° (WSW) 15:14:36 436.795 MHz FM
Saudisat 1A 02 Oct 15:05:36 15:08:47 20° 121° (ESE) 15:11:59 436.775 MHz
JAS-2 02 Oct 15:09:48 15:12:47 15° 23° (NNE) 15:15:55 435.800 - 435.900 CW/SSB, 435.910 FM
PCSat 02 Oct 15:13:11 15:18:25 45° 1° (N) 15:23:38 145.825 MHz
HO-68 02 Oct 15:31:50 15:36:47 21° 342° (NNW) 15:41:45 435.675 MHz FM
Gurwin Techsat 1B 02 Oct 15:38:16 15:43:35 75° 254° (WSW) 15:48:57 435.225 FM
FUNcube-1 02 Oct 15:41:40 15:43:10 12° 326° (NW) 15:44:40 145.950 - 145.970 MHz USB
MaSat-1 02 Oct 15:42:59 15:46:09 26° 244° (WSW) 15:48:56 437.345 MHz
